Location: Muenchen
(48.1800°N, 11.5800°E)
Time: 07:36:37
(UTC+02:00)

Cosmos 1455 - Visible Passes

Search period start: 25 October 2014 00:00
Search period end: 03 November 2014 23:00
Orbit: 516 x 544 km, 82.5° (Epoch: 24 October)

Date Brightness Start Highest point End Pass type
(mag) Time Alt. Az. Time Alt. Az. Time Alt. Az.
26 Oct 2.9 06:13:59 10° N 06:17:53 62° ENE 06:21:47 10° SSE visible
27 Oct 3.0 06:03:26 10° N 06:07:19 57° ENE 06:11:12 10° SSE visible
28 Oct 3.2 05:52:52 10° N 05:56:44 53° ENE 06:00:36 10° SSE visible
28 Oct 4.8 19:49:25 10° SW 19:50:02 14° SW 19:50:02 14° SW visible
29 Oct 3.3 05:42:18 10° N 05:46:08 49° ENE 05:49:58 10° SSE visible
29 Oct 3.7 18:04:10 10° SE 18:06:14 17° E 18:06:14 17° E visible
29 Oct 3.6 19:38:46 10° SSW 19:41:41 36° WSW 19:41:41 36° WSW visible
30 Oct 3.4 05:31:43 10° N 05:35:31 46° ENE 05:39:20 10° SSE visible
30 Oct 3.7 17:53:44 10° SE 17:56:06 16° E 17:57:56 12° NE visible
30 Oct 3.3 19:28:06 10° SSW 19:31:45 43° WNW 19:33:23 27° NNW visible
31 Oct 3.5 05:21:07 10° N 05:24:54 43° ENE 05:28:41 10° SSE visible
31 Oct 3.8 17:43:17 10° ESE 17:45:31 15° E 17:47:45 10° NE visible
31 Oct 3.2 19:17:25 10° SSW 19:21:07 46° WNW 19:24:52 10° N visible
01 Nov 3.7 05:10:31 10° N 05:14:16 40° ENE 05:18:00 10° SSE visible
01 Nov 3.9 17:32:52 10° ESE 17:34:54 14° E 17:36:58 10° NE visible
01 Nov 3.1 19:06:44 10° SSW 19:10:28 50° WNW 19:14:15 10° N visible
02 Nov 3.8 04:59:54 10° N 05:03:36 37° ENE 05:07:18 10° SE visible
02 Nov 2.9 18:56:03 10° SSW 18:59:48 54° WNW 19:03:37 10° N visible
03 Nov 3.9 04:49:17 10° N 04:52:56 35° ENE 04:56:36 10° SE visible
03 Nov 3.6 06:25:45 10° NW 06:28:44 21° W 06:31:42 10° SW visible
03 Nov 2.8 18:45:21 10° SSW 18:49:08 58° WNW 18:52:59 10° N visible
